BEL6Y EBBR-LSGG

Flight info

Callsign BEL6Y
Flight time 1h 2m
Altitude 31000
Route ROUSY DCT GTQ DCT POGOL DCT LASAT DCT MOROK Z24 AKITO
Aircraft A320/M-SDE3FGHIRWY/LB1

Departure

Time 2026-05-01 10:56
Airport Brussels Airport (EBBR)

Arrival

Time 2026-05-01 11:58
Airport Geneva International Airport (LSGG)
Time Latitude Longitude Altitude Speed Heading
2026-05-01 10:26 50.90162 4.49062 127 ft 0 kts 155°
2026-05-01 10:41 50.90163 4.49062 131 ft 0 kts 155°
2026-05-01 10:47 50.90167 4.49058 126 ft 2 kts 155°
2026-05-01 10:47 50.90185 4.49045 127 ft 3 kts 156°
2026-05-01 10:47 50.90204 4.49032 123 ft 3 kts 152°
2026-05-01 10:48 50.90221 4.49016 124 ft 3 kts 135°
2026-05-01 10:48 50.90231 4.48996 125 ft 2 kts 79°
2026-05-01 10:48 50.90230 4.48989 124 ft 0 kts 65°
2026-05-01 10:50 50.90239 4.49020 123 ft 8 kts 65°
2026-05-01 10:51 50.90260 4.49095 126 ft 7 kts 65°
2026-05-01 10:51 50.90289 4.49193 124 ft 13 kts 65°
2026-05-01 10:51 50.90332 4.49341 124 ft 15 kts 65°
2026-05-01 10:51 50.90369 4.49505 123 ft 15 kts 106°
2026-05-01 10:52 50.90286 4.49520 123 ft 13 kts 192°
2026-05-01 10:52 50.90198 4.49487 126 ft 13 kts 194°
2026-05-01 10:52 50.90113 4.49452 129 ft 12 kts 195°
2026-05-01 10:52 50.90026 4.49417 131 ft 13 kts 194°
2026-05-01 10:53 50.89938 4.49382 134 ft 12 kts 194°
2026-05-01 10:53 50.89865 4.49352 139 ft 10 kts 194°
2026-05-01 10:53 50.89786 4.49320 144 ft 17 kts 195°
2026-05-01 10:53 50.89668 4.49273 151 ft 15 kts 194°
2026-05-01 10:54 50.89590 4.49208 155 ft 12 kts 219°
2026-05-01 10:54 50.89520 4.49170 159 ft 10 kts 194°
2026-05-01 10:54 50.89459 4.49146 162 ft 8 kts 194°
2026-05-01 10:54 50.89396 4.49121 164 ft 12 kts 194°
2026-05-01 10:55 50.89296 4.49079 168 ft 14 kts 194°
2026-05-01 10:55 50.89215 4.49046 174 ft 10 kts 195°
2026-05-01 10:55 50.89152 4.49059 176 ft 11 kts 128°
2026-05-01 10:55 50.89162 4.49153 176 ft 13 kts 74°
2026-05-01 10:56 50.89242 4.49507 176 ft 74 kts 70°
2026-05-01 10:56 50.89518 4.50674 176 ft 151 kts 72°
2026-05-01 10:56 50.89916 4.52467 519 ft 187 kts 74°
2026-05-01 10:56 50.90394 4.54393 1558 ft 186 kts 69°
2026-05-01 10:57 50.90980 4.56235 2418 ft 194 kts 66°
2026-05-01 10:57 50.91652 4.58243 2956 ft 218 kts 68°
2026-05-01 10:57 50.92406 4.60480 3453 ft 241 kts 67°
2026-05-01 10:57 50.93219 4.62869 4248 ft 249 kts 66°
2026-05-01 10:58 50.93916 4.65376 5214 ft 249 kts 75°
2026-05-01 10:58 50.94458 4.68005 6110 ft 253 kts 77°
2026-05-01 10:58 50.94970 4.70655 6972 ft 258 kts 77°
2026-05-01 10:58 50.95396 4.73422 7817 ft 259 kts 87°
2026-05-01 10:59 50.95297 4.76273 8658 ft 261 kts 104°
2026-05-01 10:59 50.94628 4.78964 9509 ft 265 kts 121°
2026-05-01 10:59 50.93433 4.81223 10323 ft 272 kts 137°
2026-05-01 10:59 50.91933 4.83211 10706 ft 293 kts 138°
2026-05-01 11:00 50.90297 4.85345 11002 ft 315 kts 141°
2026-05-01 11:00 50.88368 4.87159 11585 ft 328 kts 153°
2026-05-01 11:00 50.86161 4.88248 12253 ft 338 kts 166°
2026-05-01 11:00 50.83804 4.88661 12967 ft 345 kts 171°
2026-05-01 11:01 50.81431 4.89023 13667 ft 349 kts 171°
2026-05-01 11:01 50.78962 4.89406 14348 ft 354 kts 171°
2026-05-01 11:01 50.76503 4.89793 14963 ft 358 kts 171°
2026-05-01 11:01 50.74035 4.90181 15596 ft 362 kts 171°
2026-05-01 11:02 50.71521 4.90572 16244 ft 365 kts 171°
2026-05-01 11:02 50.69009 4.91138 16855 ft 366 kts 163°
2026-05-01 11:02 50.66599 4.92446 17489 ft 366 kts 152°
2026-05-01 11:02 50.64413 4.94473 18102 ft 366 kts 140°
2026-05-01 11:03 50.62519 4.97133 18715 ft 366 kts 133°
2026-05-01 11:03 50.60702 4.99978 19265 ft 370 kts 133°
2026-05-01 11:03 50.58871 5.02827 19805 ft 373 kts 133°
2026-05-01 11:03 50.57007 5.05714 20353 ft 376 kts 133°
2026-05-01 11:04 50.55137 5.08602 20880 ft 379 kts 133°
2026-05-01 11:04 50.53265 5.11488 21407 ft 382 kts 133°
2026-05-01 11:04 50.51357 5.14424 21954 ft 386 kts 133°
2026-05-01 11:04 50.49434 5.17382 22483 ft 389 kts 133°
2026-05-01 11:05 50.47494 5.20362 22994 ft 392 kts 133°
2026-05-01 11:05 50.45538 5.23373 23493 ft 395 kts 133°
2026-05-01 11:05 50.43570 5.26408 23967 ft 398 kts 133°
2026-05-01 11:05 50.41587 5.29462 24371 ft 401 kts 133°
2026-05-01 11:06 50.39589 5.32527 24785 ft 403 kts 133°
2026-05-01 11:06 50.37576 5.35598 25191 ft 405 kts 133°
2026-05-01 11:06 50.35550 5.38680 25589 ft 407 kts 133°
2026-05-01 11:07 50.31498 5.44846 26347 ft 411 kts 133°
2026-05-01 11:07 50.29441 5.47969 26723 ft 413 kts 133°
2026-05-01 11:07 50.27377 5.51101 27094 ft 415 kts 133°
2026-05-01 11:07 50.25305 5.54245 27446 ft 417 kts 133°
2026-05-01 11:08 50.23216 5.57411 27805 ft 418 kts 133°
2026-05-01 11:08 50.21125 5.60580 28152 ft 420 kts 133°
2026-05-01 11:08 50.16933 5.66914 28828 ft 424 kts 133°
2026-05-01 11:09 50.14808 5.70117 29159 ft 426 kts 133°
2026-05-01 11:09 50.12671 5.73331 29472 ft 428 kts 133°
2026-05-01 11:09 50.10523 5.76554 29761 ft 430 kts 134°
2026-05-01 11:10 50.05513 5.81779 30346 ft 442 kts 153°
2026-05-01 11:10 50.02604 5.83400 30579 ft 446 kts 158°
2026-05-01 11:10 49.99652 5.84919 30818 ft 447 kts 158°
2026-05-01 11:10 49.96697 5.86441 31047 ft 449 kts 158°
2026-05-01 11:11 49.93769 5.87949 31251 ft 450 kts 158°
2026-05-01 11:11 49.90822 5.89462 31311 ft 442 kts 158°
2026-05-01 11:11 49.85052 5.92427 31316 ft 434 kts 158°
2026-05-01 11:12 49.79331 5.95360 31319 ft 433 kts 158°
2026-05-01 11:12 49.73607 5.98286 31323 ft 433 kts 158°
2026-05-01 11:13 49.67921 6.01191 31326 ft 433 kts 158°
2026-05-01 11:13 49.62193 6.04107 31325 ft 433 kts 158°
2026-05-01 11:14 49.56470 6.07024 31325 ft 433 kts 158°
2026-05-01 11:14 49.50744 6.09942 31317 ft 433 kts 157°
2026-05-01 11:15 49.45481 6.14185 31315 ft 425 kts 140°
2026-05-01 11:15 49.40884 6.19868 31312 ft 424 kts 138°
2026-05-01 11:16 49.36328 6.25522 31305 ft 425 kts 138°
2026-05-01 11:16 49.31721 6.31208 31300 ft 425 kts 138°
2026-05-01 11:17 49.27103 6.36886 31293 ft 426 kts 138°
2026-05-01 11:17 49.22483 6.42557 31290 ft 426 kts 138°
2026-05-01 11:18 49.17893 6.48187 31289 ft 426 kts 138°
2026-05-01 11:18 49.13256 6.53861 31290 ft 427 kts 138°
2026-05-01 11:19 49.08610 6.59519 31291 ft 428 kts 139°
2026-05-01 11:19 49.03949 6.65178 31294 ft 428 kts 139°
2026-05-01 11:20 48.98791 6.69769 31298 ft 435 kts 157°
2026-05-01 11:20 48.92854 6.71390 31297 ft 442 kts 178°
2026-05-01 11:21 48.86691 6.71139 31298 ft 443 kts 179°
2026-05-01 11:21 48.80521 6.70897 31300 ft 443 kts 179°
2026-05-01 11:22 48.74356 6.70671 31300 ft 443 kts 179°
2026-05-01 11:22 48.68198 6.70428 31296 ft 443 kts 179°
2026-05-01 11:23 48.62084 6.70189 31295 ft 442 kts 179°
2026-05-01 11:23 48.55931 6.69960 31298 ft 442 kts 179°
2026-05-01 11:24 48.49779 6.69714 31295 ft 442 kts 179°
2026-05-01 11:25 48.40554 6.69356 31294 ft 442 kts 179°
2026-05-01 11:25 48.31371 6.69004 31293 ft 442 kts 179°
2026-05-01 11:26 48.22148 6.68655 31298 ft 442 kts 179°
2026-05-01 11:27 48.16003 6.68418 31297 ft 442 kts 179°
2026-05-01 11:27 48.09858 6.68181 31299 ft 442 kts 179°
2026-05-01 11:28 48.03760 6.67960 31295 ft 441 kts 179°
2026-05-01 11:28 47.97622 6.67733 31291 ft 441 kts 179°
2026-05-01 11:29 47.88426 6.67371 31284 ft 441 kts 179°
2026-05-01 11:30 47.79272 6.67032 31282 ft 440 kts 179°
2026-05-01 11:30 47.73142 6.66807 31287 ft 440 kts 179°
2026-05-01 11:31 47.67018 6.66571 31300 ft 440 kts 179°
2026-05-01 11:31 47.60896 6.66333 31298 ft 440 kts 179°
2026-05-01 11:32 47.54815 6.66106 31297 ft 440 kts 179°
2026-05-01 11:32 47.48693 6.65890 31295 ft 440 kts 179°
2026-05-01 11:33 47.42576 6.65661 31295 ft 440 kts 179°
2026-05-01 11:33 47.37492 6.65467 31296 ft 440 kts 179°
2026-05-01 11:34 47.31371 6.65243 31295 ft 440 kts 179°
2026-05-01 11:34 47.24294 6.64445 31310 ft 442 kts 192°
2026-05-01 11:35 47.19499 6.61687 31230 ft 445 kts 208°
2026-05-01 11:35 47.16985 6.59154 30909 ft 439 kts 219°
2026-05-01 11:35 47.14756 6.56208 30896 ft 423 kts 221°
2026-05-01 11:35 47.12617 6.53383 30997 ft 403 kts 220°
2026-05-01 11:36 47.10578 6.50719 31128 ft 385 kts 220°
2026-05-01 11:36 47.08589 6.48135 30870 ft 378 kts 220°
2026-05-01 11:36 47.06638 6.45604 30621 ft 371 kts 220°
2026-05-01 11:36 47.04726 6.43119 30413 ft 362 kts 220°
2026-05-01 11:37 47.02861 6.40689 30615 ft 358 kts 220°
2026-05-01 11:37 47.00992 6.38254 30855 ft 361 kts 220°
2026-05-01 11:37 46.99131 6.35833 31095 ft 366 kts 220°
2026-05-01 11:38 46.95208 6.30742 30214 ft 392 kts 220°
2026-05-01 11:38 46.93153 6.28074 29256 ft 393 kts 220°
2026-05-01 11:38 46.91138 6.25456 28711 ft 382 kts 220°
2026-05-01 11:38 46.89175 6.22904 28151 ft 373 kts 220°
2026-05-01 11:39 46.87260 6.20409 27619 ft 364 kts 220°
2026-05-01 11:39 46.85387 6.17965 27102 ft 359 kts 220°
2026-05-01 11:39 46.83558 6.15579 26594 ft 356 kts 220°
2026-05-01 11:39 46.81714 6.13173 26087 ft 356 kts 220°
2026-05-01 11:40 46.79859 6.10762 25559 ft 356 kts 220°
2026-05-01 11:40 46.78005 6.08359 25064 ft 357 kts 220°
2026-05-01 11:40 46.76149 6.05955 24568 ft 357 kts 219°
2026-05-01 11:40 46.74288 6.03545 24053 ft 358 kts 219°
2026-05-01 11:41 46.72420 6.01130 23503 ft 359 kts 219°
2026-05-01 11:41 46.70559 5.98724 23008 ft 357 kts 219°
2026-05-01 11:41 46.68728 5.96359 22552 ft 355 kts 219°
2026-05-01 11:41 46.66887 5.93983 22097 ft 353 kts 219°
2026-05-01 11:42 46.65057 5.91628 21784 ft 347 kts 219°
2026-05-01 11:42 46.63278 5.89346 21697 ft 335 kts 219°
2026-05-01 11:42 46.61560 5.87144 21547 ft 326 kts 218°
2026-05-01 11:42 46.59709 5.85333 21392 ft 317 kts 202°
2026-05-01 11:43 46.57626 5.84415 21247 ft 312 kts 185°
2026-05-01 11:43 46.55473 5.84397 20900 ft 312 kts 169°
2026-05-01 11:43 46.53397 5.85320 20367 ft 314 kts 153°
2026-05-01 11:44 46.49764 5.88823 19429 ft 317 kts 145°
2026-05-01 11:44 46.47943 5.90655 18930 ft 319 kts 145°
2026-05-01 11:44 46.46144 5.92455 18449 ft 310 kts 145°
2026-05-01 11:44 46.44392 5.94206 17970 ft 301 kts 145°
2026-05-01 11:45 46.42689 5.95903 17531 ft 295 kts 145°
2026-05-01 11:45 46.41019 5.97567 17105 ft 292 kts 145°
2026-05-01 11:45 46.39350 5.99236 16677 ft 291 kts 145°
2026-05-01 11:45 46.37707 6.00881 16256 ft 289 kts 146°
2026-05-01 11:46 46.35911 6.02160 15831 ft 287 kts 165°
2026-05-01 11:46 46.33937 6.02442 15411 ft 287 kts 185°
2026-05-01 11:46 46.32021 6.01686 14990 ft 288 kts 206°
2026-05-01 11:46 46.30416 6.00010 14563 ft 288 kts 224°
2026-05-01 11:47 46.29001 5.97926 14123 ft 288 kts 224°
2026-05-01 11:47 46.27602 5.95872 13667 ft 284 kts 223°
2026-05-01 11:47 46.26219 5.93852 13241 ft 282 kts 224°
2026-05-01 11:47 46.24872 5.91884 12849 ft 276 kts 224°
2026-05-01 11:48 46.23555 5.89962 12397 ft 265 kts 224°
2026-05-01 11:48 46.22278 5.88101 12030 ft 257 kts 224°
2026-05-01 11:48 46.21040 5.86301 11674 ft 250 kts 223°
2026-05-01 11:48 46.19824 5.84534 11304 ft 246 kts 224°
2026-05-01 11:49 46.18619 5.82786 10937 ft 244 kts 224°
2026-05-01 11:49 46.17416 5.81046 10591 ft 243 kts 224°
2026-05-01 11:49 46.16230 5.79330 10240 ft 241 kts 224°
2026-05-01 11:49 46.15049 5.77620 9853 ft 239 kts 224°
2026-05-01 11:50 46.13893 5.75945 9503 ft 239 kts 224°
2026-05-01 11:50 46.12723 5.74254 9415 ft 239 kts 224°
2026-05-01 11:50 46.11523 5.72592 9333 ft 239 kts 216°
2026-05-01 11:50 46.10026 5.71673 9226 ft 236 kts 186°
2026-05-01 11:51 46.08404 5.71896 9001 ft 239 kts 160°
2026-05-01 11:51 46.06998 5.73234 8343 ft 249 kts 136°
2026-05-01 11:51 46.05747 5.74996 7742 ft 252 kts 135°
2026-05-01 11:51 46.04523 5.76733 7465 ft 241 kts 135°
2026-05-01 11:52 46.03520 5.78602 7104 ft 232 kts 108°
2026-05-01 11:52 46.03483 5.80777 6892 ft 219 kts 69°
2026-05-01 11:52 46.04345 5.82512 6558 ft 214 kts 45°
2026-05-01 11:52 46.05381 5.84006 6209 ft 208 kts 45°
2026-05-01 11:53 46.06381 5.85456 5894 ft 199 kts 45°
2026-05-01 11:53 46.07336 5.86841 5628 ft 189 kts 45°
2026-05-01 11:53 46.08235 5.88144 5391 ft 179 kts 45°
2026-05-01 11:53 46.09102 5.89404 5168 ft 176 kts 45°
2026-05-01 11:54 46.09964 5.90656 4937 ft 175 kts 45°
2026-05-01 11:54 46.10821 5.91904 4709 ft 176 kts 46°
2026-05-01 11:54 46.11667 5.93136 4466 ft 174 kts 45°
2026-05-01 11:54 46.12519 5.94377 4237 ft 174 kts 46°
2026-05-01 11:55 46.13366 5.95616 4031 ft 173 kts 46°
2026-05-01 11:55 46.14198 5.96838 3827 ft 167 kts 46°
2026-05-01 11:55 46.15015 5.98033 3618 ft 167 kts 45°
2026-05-01 11:55 46.15828 5.99220 3391 ft 164 kts 45°
2026-05-01 11:56 46.16628 6.00389 3178 ft 162 kts 45°
2026-05-01 11:56 46.17406 6.01525 2959 ft 160 kts 45°
2026-05-01 11:56 46.18184 6.02662 2750 ft 158 kts 45°
2026-05-01 11:56 46.18953 6.03787 2523 ft 156 kts 46°
2026-05-01 11:57 46.19716 6.04902 2313 ft 155 kts 46°
2026-05-01 11:57 46.20464 6.06000 2093 ft 154 kts 46°
2026-05-01 11:57 46.21217 6.07090 1848 ft 152 kts 45°
2026-05-01 11:57 46.21962 6.08165 1631 ft 151 kts 46°
2026-05-01 11:58 46.22697 6.09259 1460 ft 151 kts 46°
2026-05-01 11:58 46.23409 6.10322 1395 ft 149 kts 40°
2026-05-01 11:58 46.24183 6.11446 1375 ft 40 kts 45°
2026-05-01 11:59 46.24221 6.11504 1374 ft 0 kts 50°
2026-05-01 11:59 46.24244 6.11545 1374 ft 27 kts 53°
2026-05-01 11:59 46.24310 6.11720 1369 ft 11 kts 67°
2026-05-01 12:00 46.24301 6.11952 1363 ft 13 kts 203°
2026-05-01 12:00 46.24231 6.11850 1362 ft 24 kts 227°
2026-05-01 12:00 46.24003 6.11519 1371 ft 17 kts 226°
2026-05-01 12:01 46.23942 6.11424 1374 ft 10 kts 227°
2026-05-01 12:01 46.23903 6.11369 1376 ft 6 kts 223°
2026-05-01 12:01 46.23835 6.11271 1378 ft 21 kts 226°
2026-05-01 12:01 46.23750 6.11134 1381 ft 22 kts 228°
2026-05-01 12:02 46.23634 6.10988 1389 ft 21 kts 231°
2026-05-01 12:02 46.23530 6.10823 1391 ft 21 kts 225°
2026-05-01 12:02 46.23429 6.10678 1403 ft 20 kts 224°
2026-05-01 12:02 46.23328 6.10536 1392 ft 20 kts 225°
2026-05-01 12:03 46.23243 6.10413 1400 ft 14 kts 225°
2026-05-01 12:03 46.23205 6.10356 1396 ft 7 kts 226°
2026-05-01 12:03 46.23158 6.10360 1394 ft 11 kts 136°
2026-05-01 12:03 46.23103 6.10438 1397 ft 11 kts 135°
2026-05-01 12:04 46.23068 6.10504 1398 ft 6 kts 97°
2026-05-01 12:04 46.23078 6.10530 1396 ft 2 kts 55°
2026-05-01 12:04 46.23091 6.10550 1399 ft 4 kts 45°
2026-05-01 12:04 46.23115 6.10587 1393 ft 0 kts 47°
2026-05-01 12:05 46.23118 6.10591 1393 ft 7 kts 48°
2026-05-01 12:05 46.23108 6.10658 1393 ft 4 kts 134°
2026-05-01 12:05 46.23103 6.10664 1393 ft 0 kts 135°